TimePST,TemperatureF,Dew PointF,Humidity,Sea Level PressureIn,VisibilityMPH,Wind Direction,Wind SpeedMPH,Gust SpeedMPH,PrecipitationIn,Events,Conditions,WindDirDegrees,DateUTC
12:53 AM,39.0,32.0,76,30.16,10.0,East,4.6,-,N/A,,Clear,80,2013-12-30 08:53:00
1:53 AM,39.0,32.0,76,30.16,10.0,NE,4.6,-,N/A,,Clear,50,2013-12-30 09:53:00
2:53 AM,37.0,32.0,82,30.18,10.0,ENE,3.5,-,N/A,,Clear,70,2013-12-30 10:53:00
3:53 AM,37.9,32.0,79,30.18,10.0,East,3.5,-,N/A,,Clear,80,2013-12-30 11:53:00
4:53 AM,37.9,32.0,79,30.18,10.0,East,4.6,-,N/A,,Clear,90,2013-12-30 12:53:00
5:53 AM,37.0,33.1,86,30.18,10.0,East,3.5,-,N/A,,Clear,90,2013-12-30 13:53:00
6:53 AM,39.9,30.9,70,30.19,10.0,East,8.1,-,N/A,,Clear,100,2013-12-30 14:53:00
7:53 AM,39.9,32.0,73,30.20,10.0,Calm,Calm,-,N/A,,Clear,0,2013-12-30 15:53:00
8:53 AM,43.0,35.1,74,30.21,10.0,Calm,Calm,-,N/A,,Clear,0,2013-12-30 16:53:00
9:53 AM,50.0,39.0,66,30.23,10.0,Calm,Calm,-,N/A,,Clear,0,2013-12-30 17:53:00
10:53 AM,57.9,39.0,49,30.25,10.0,Calm,Calm,-,N/A,,Clear,0,2013-12-30 18:53:00
11:53 AM,61.0,26.1,26,30.24,10.0,SW,3.5,-,N/A,,Clear,220,2013-12-30 19:53:00
12:53 PM,60.1,28.0,30,30.21,10.0,WSW,5.8,-,N/A,,Clear,250,2013-12-30 20:53:00
1:53 PM,57.9,36.0,44,30.17,9.0,NNE,4.6,-,N/A,,Clear,20,2013-12-30 21:53:00
2:53 PM,55.9,32.0,40,30.19,10.0,North,4.6,-,N/A,,Clear,360,2013-12-30 22:53:00
3:53 PM,54.0,36.0,51,30.21,10.0,NNW,5.8,-,N/A,,Clear,330,2013-12-30 23:53:00
4:53 PM,52.0,37.9,59,30.23,10.0,Calm,Calm,-,N/A,,Clear,0,2013-12-31 00:53:00
5:53 PM,46.9,39.0,74,30.23,10.0,Calm,Calm,-,N/A,,Clear,0,2013-12-31 01:53:00
6:53 PM,45.0,39.0,80,30.25,9.0,East,4.6,-,N/A,,Clear,90,2013-12-31 02:53:00
7:53 PM,44.1,37.9,79,30.25,10.0,Calm,Calm,-,N/A,,Clear,0,2013-12-31 03:53:00
8:53 PM,42.1,37.9,85,30.25,10.0,ENE,3.5,-,N/A,,Clear,60,2013-12-31 04:53:00
9:53 PM,39.9,36.0,86,30.24,9.0,Calm,Calm,-,N/A,,Clear,0,2013-12-31 05:53:00
10:53 PM,39.0,35.1,86,30.24,9.0,Calm,Calm,-,N/A,,Clear,0,2013-12-31 06:53:00
11:53 PM,37.9,35.1,89,30.24,8.0,Calm,Calm,-,N/A,,Clear,0,2013-12-31 07:53:00